| time (UTC) | temp F | wind direction | speed MPH | gust MPH | rain 1hr in | rain 24hr in | rain mn in | humidity % | barometer mb |
| 20260509061612 | 45 | 169 | 8.0 | 0.0 | 0.00 | 0.00 | 0.00 | 56 | 981.2 |
| 20260509060158 | 45 | 164 | 8.0 | 0.0 | 0.00 | 0.00 | 0.00 | 56 | 981.2 |
| 20260509054611 | 45 | 159 | 7.0 | 0.0 | 0.00 | 0.00 | 0.00 | 50 | 982.5 |
| 20260509053126 | 45 | 156 | 7.0 | 0.0 | 0.00 | 0.00 | 0.00 | 56 | 981.9 |
| 20260509051609 | 46 | 154 | 7.0 | 0.0 | 0.00 | 0.00 | 0.00 | 56 | 981.9 |
| 20260509050143 | 46 | 154 | 7.0 | 0.0 | 0.00 | 0.00 | 0.00 | 56 | 981.9 |
| 20260509044610 | 46 | 152 | 7.0 | 0.0 | 0.00 | 0.00 | 0.00 | 51 | 982.9 |
| 20260509043127 | 46 | 157 | 7.0 | 0.0 | 0.00 | 0.00 | 0.00 | 53 | 981.6 |
| 20260509041610 | 47 | 158 | 7.0 | 0.0 | 0.00 | 0.00 | 0.00 | 53 | 981.7 |
| 20260509040148 | 47 | 158 | 8.0 | 0.0 | 0.00 | 0.00 | 0.00 | 53 | 981.7 |
| 20260509034610 | 47 | 158 | 7.0 | 0.0 | 0.00 | 0.00 | 0.00 | 49 | 982.6 |
| 20260509033125 | 48 | 166 | 6.0 | 0.0 | 0.00 | 0.00 | 0.00 | 48 | 983.2 |
| 20260509031610 | 48 | 167 | 7.0 | 0.0 | 0.00 | 0.00 | 0.00 | 48 | 983.2 |
| 20260509030143 | 49 | 164 | 7.0 | 0.0 | 0.00 | 0.00 | 0.00 | 48 | 983.2 |
| 20260509024609 | 49 | 159 | 6.0 | 0.0 | 0.00 | 0.00 | 0.00 | 37 | 983.3 |
| 20260509023127 | 50 | 159 | 6.0 | 0.0 | 0.00 | 0.00 | 0.00 | 41 | 983.4 |
| 20260509021610 | 50 | 170 | 6.0 | 0.0 | 0.00 | 0.00 | 0.00 | 41 | 983.4 |
| 20260509020139 | 51 | 173 | 5.0 | 0.0 | 0.00 | 0.00 | 0.00 | 41 | 983.4 |
| 20260509014608 | 51 | 178 | 6.0 | 0.0 | 0.00 | 0.00 | 0.00 | 39 | 983.4 |
| 20260509013123 | 52 | 188 | 4.0 | 0.0 | 0.00 | 0.00 | 0.00 | 39 | 983.4 |
| 20260509011609 | 53 | 198 | 3.0 | 0.0 | 0.00 | 0.00 | 0.00 | 39 | 983.4 |
| 20260509010137 | 54 | 228 | 2.0 | 0.0 | 0.00 | 0.00 | 0.00 | 39 | 983.4 |
| 20260509004607 | 55 | 252 | 2.0 | 0.0 | 0.00 | 0.00 | 0.00 | 36 | 983.0 |
| 20260509003126 | 55 | 252 | 4.0 | 0.0 | 0.00 | 0.00 | 0.00 | 33 | 984.3 |
| 20260509001608 | 56 | 263 | 3.0 | 0.0 | 0.00 | 0.00 | 0.00 | 33 | 984.3 |
| 20260509000151 | 57 | 267 | 3.0 | 0.0 | 0.00 | 0.00 | 0.00 | 33 | 984.3 |
| 20260508234610 | 57 | 265 | 5.0 | 0.0 | 0.00 | 0.00 | 0.00 | 26 | 983.6 |
| 20260508233130 | 58 | 263 | 7.0 | 0.0 | 0.00 | 0.00 | 0.00 | 25 | 984.2 |
| 20260508231612 | 59 | 261 | 6.0 | 0.0 | 0.00 | 0.00 | 0.00 | 25 | 984.2 |
| 20260508230135 | 59 | 270 | 7.0 | 0.0 | 0.00 | 0.00 | 0.00 | 25 | 984.2 |
| 20260508224611 | 60 | 272 | 8.0 | 0.0 | 0.00 | 0.00 | 0.00 | 25 | 984.3 |
| 20260508223130 | 60 | 277 | 9.0 | 0.0 | 0.00 | 0.00 | 0.00 | 23 | 985.2 |
| 20260508221612 | 60 | 276 | 10.0 | 0.0 | 0.00 | 0.00 | 0.00 | 23 | 985.2 |
| 20260508220137 | 60 | 272 | 10.0 | 0.0 | 0.00 | 0.00 | 0.00 | 23 | 985.2 |
| 20260508214612 | 60 | 271 | 11.0 | 0.0 | 0.00 | 0.00 | 0.00 | 23 | 985.7 |
| 20260508213129 | 60 | 266 | 11.0 | 0.0 | 0.00 | 0.00 | 0.00 | 24 | 985.1 |
| 20260508211612 | 61 | 255 | 10.0 | 0.0 | 0.00 | 0.00 | 0.00 | 24 | 985.2 |
| 20260508210141 | 61 | 254 | 10.0 | 0.0 | 0.00 | 0.00 | 0.00 | 24 | 985.2 |
| 20260508204612 | 61 | 252 | 11.0 | 0.0 | 0.00 | 0.00 | 0.00 | 26 | 985.4 |
| 20260508203130 | 61 | 250 | 11.0 | 0.0 | 0.00 | 0.00 | 0.00 | 23 | 985.1 |
| 20260508201612 | 62 | 249 | 10.0 | 0.0 | 0.00 | 0.00 | 0.00 | 23 | 985.1 |
| 20260508200137 | 62 | 250 | 10.0 | 0.0 | 0.00 | 0.00 | 0.00 | 23 | 985.1 |
| 20260508194612 | 62 | 250 | 9.0 | 0.0 | 0.00 | 0.00 | 0.00 | 21 | 985.3 |
| 20260508193126 | 62 | 248 | 10.0 | 0.0 | 0.00 | 0.00 | 0.00 | 21 | 985.3 |
| 20260508191611 | 62 | 255 | 10.0 | 0.0 | 0.00 | 0.00 | 0.00 | 21 | 985.3 |
| 20260508190135 | 62 | 256 | 9.0 | 0.0 | 0.00 | 0.00 | 0.00 | 21 | 985.3 |
| 20260508184611 | 62 | 254 | 10.0 | 0.0 | 0.00 | 0.00 | 0.00 | 24 | 985.8 |
| 20260508183131 | 61 | 253 | 10.0 | 0.0 | 0.00 | 0.00 | 0.00 | 25 | 985.3 |
| 20260508181611 | 61 | 255 | 10.0 | 0.0 | 0.00 | 0.00 | 0.00 | 25 | 985.3 |
| 20260508180143 | 61 | 252 | 10.0 | 0.0 | 0.00 | 0.00 | 0.00 | 25 | 985.3 |
| 20260508174612 | 61 | 249 | 9.0 | 0.0 | 0.00 | 0.00 | 0.00 | 35 | 986.4 |
| 20260508173130 | 60 | 251 | 10.0 | 0.0 | 0.00 | 0.00 | 0.00 | 35 | 986.4 |
| 20260508171611 | 60 | 239 | 9.0 | 0.0 | 0.00 | 0.00 | 0.00 | 35 | 986.4 |
| 20260508170137 | 59 | 242 | 10.0 | 0.0 | 0.00 | 0.00 | 0.00 | 35 | 986.4 |
| 20260508164611 | 59 | 248 | 10.0 | 0.0 | 0.00 | 0.00 | 0.00 | 35 | 986.7 |
| 20260508163130 | 59 | 246 | 10.0 | 0.0 | 0.00 | 0.00 | 0.00 | 35 | 986.9 |
| 20260508161611 | 57 | 237 | 8.0 | 0.0 | 0.00 | 0.00 | 0.00 | 35 | 986.9 |
| 20260508160142 | 57 | 235 | 8.0 | 0.0 | 0.00 | 0.00 | 0.00 | 35 | 986.9 |
| 20260508154612 | 56 | 226 | 7.0 | 0.0 | 0.00 | 0.00 | 0.00 | 47 | 987.9 |
| 20260508153132 | 55 | 206 | 7.0 | 0.0 | 0.00 | 0.00 | 0.00 | 53 | 986.8 |
| 20260508151612 | 54 | 195 | 6.0 | 0.0 | 0.00 | 0.00 | 0.00 | 53 | 986.8 |
| 20260508150142 | 54 | 193 | 7.0 | 0.0 | 0.00 | 0.00 | 0.00 | 53 | 986.8 |
| 20260508144612 | 53 | 188 | 6.0 | 0.0 | 0.00 | 0.00 | 0.00 | 65 | 987.0 |
| 20260508143129 | 52 | 189 | 6.0 | 0.0 | 0.00 | 0.00 | 0.00 | 59 | 987.1 |
| 20260508141612 | 51 | 184 | 6.0 | 0.0 | 0.00 | 0.00 | 0.00 | 59 | 987.1 |
| 20260508140150 | 50 | 178 | 6.0 | 0.0 | 0.00 | 0.00 | 0.00 | 61 | 986.9 |
| 20260508134612 | 49 | 175 | 5.0 | 0.0 | 0.00 | 0.00 | 0.00 | 69 | 986.8 |
| 20260508133126 | 48 | 178 | 6.0 | 0.0 | 0.00 | 0.00 | 0.00 | 69 | 986.8 |
| 20260508131612 | 46 | 178 | 6.0 | 0.0 | 0.00 | 0.00 | 0.00 | 69 | 986.8 |
| 20260508130146 | 45 | 174 | 6.0 | 0.0 | 0.00 | 0.00 | 0.00 | 69 | 986.8 |
| 20260508124612 | 43 | 172 | 6.0 | 0.0 | 0.00 | 0.00 | 0.00 | 83 | 986.2 |
| 20260508123130 | 42 | 180 | 5.0 | 0.0 | 0.00 | 0.00 | 0.00 | 83 | 986.8 |
| 20260508121611 | 41 | 174 | 4.0 | 0.0 | 0.00 | 0.00 | 0.00 | 83 | 986.8 |
| 20260508120202 | 39 | 159 | 3.0 | 0.0 | 0.00 | 0.00 | 0.00 | 83 | 986.8 |
| 20260508114611 | 37 | 156 | 2.0 | 0.0 | 0.00 | 0.00 | 0.00 | 86 | 986.3 |
| 20260508113133 | 36 | 146 | 3.0 | 0.0 | 0.00 | 0.00 | 0.00 | 87 | 986.9 |
| 20260508111611 | 36 | 137 | 3.0 | 0.0 | 0.00 | 0.00 | 0.00 | 87 | 987.0 |
| 20260508110137 | 36 | 141 | 4.0 | 0.0 | 0.00 | 0.00 | 0.00 | 87 | 987.0 |
| 20260508104613 | 35 | 135 | 5.0 | 0.0 | 0.00 | 0.00 | 0.00 | 81 | 986.0 |
| 20260508103131 | 36 | 131 | 5.0 | 0.0 | 0.00 | 0.00 | 0.00 | 81 | 987.0 |
| 20260508101614 | 36 | 135 | 4.0 | 0.0 | 0.00 | 0.00 | 0.00 | 81 | 987.0 |
| 20260508100138 | 37 | 129 | 4.0 | 0.0 | 0.00 | 0.00 | 0.00 | 81 | 987.0 |
| 20260508094613 | 37 | 129 | 4.0 | 0.0 | 0.00 | 0.00 | 0.00 | 75 | 986.4 |
| 20260508093127 | 37 | 127 | 4.0 | 0.0 | 0.00 | 0.00 | 0.00 | 77 | 987.1 |
| 20260508091614 | 38 | 124 | 4.0 | 0.0 | 0.00 | 0.00 | 0.00 | 77 | 987.1 |
| 20260508090142 | 38 | 125 | 4.0 | 0.0 | 0.00 | 0.00 | 0.00 | 77 | 987.1 |
| 20260508084613 | 38 | 122 | 4.0 | 0.0 | 0.00 | 0.00 | 0.00 | 78 | 986.7 |
| 20260508083131 | 38 | 115 | 3.0 | 0.0 | 0.00 | 0.00 | 0.00 | 80 | 986.4 |
| 20260508081612 | 38 | 160 | 4.0 | 0.0 | 0.00 | 0.00 | 0.00 | 80 | 986.4 |
| 20260508080145 | 38 | 157 | 4.0 | 0.0 | 0.00 | 0.00 | 0.00 | 80 | 986.4 |
| 20260508074614 | 38 | 141 | 4.0 | 0.0 | 0.00 | 0.00 | 0.00 | 80 | 987.2 |
| 20260508073131 | 39 | 143 | 4.0 | 0.0 | 0.00 | 0.00 | 0.00 | 80 | 987.2 |
| 20260508071612 | 39 | 162 | 4.0 | 0.0 | 0.00 | 0.00 | 0.00 | 80 | 987.1 |
| 20260508070144 | 39 | 169 | 4.0 | 0.0 | 0.00 | 0.00 | 0.00 | 80 | 987.1 |
| 20260508064613 | 39 | 162 | 4.0 | 0.0 | 0.00 | 0.00 | 0.00 | 62 | 986.8 |
| 20260508063128 | 40 | 159 | 3.0 | 0.0 | 0.00 | 0.00 | 0.00 | 76 | 987.3 |